ONEWEB-0011 (44062 NORAD) Tracking and Keplerian Element Data

This shows tracking and keplerian element data for the satellite.

Feedback or suggestion? Click here.




ElementValue
Catalog44062
NameONEWEB-0011
Epoch Orbit32784
Epoch Day353.89207485
Epoch Year2025
RAAN294.9613
Inclination87.9004
Eccentricity0.0001648
Argument of Perigee76.0089
Mean Anonmoly284.1225
Mean Motion13.15550302
Decay Rate4E-07
L11 44062U 19010F 25353.89207485 .00000040 00000+0 71470-4 0 9994
L22 44062 87.9004 294.9613 0001648 76.0089 284.1225 13.15550302327842



Live tracking and technical data element details for ONEWEB-0011 (NORAD 44062). ONEWEB-0011 can be tracked NOW for your location showing map with azimuth and elevation plus other details from your city location.







IsCatalogInMostPopularTable: catalog: 44062, numindb: 1503
Update: records affected: 1



GetName: 44062 ONEWEB-0011

Hit Count: updated at: Sat, 18 Apr 2026 16:29:11 GMT